Location: Les Gen�tes
(46.3104°N, 1.5969°E)
Time: 13:17:06
(UTC+00:00)

ATLAS CENTAUR R/B - Pass Details

Date: 01 June 2020
Orbit: 475 x 672 km, 64.7° (Epoch: 13 July)

Event Time Altitude Azimuth Distance (km) Brightness Sun altitude
Exits shadow 21:59:37 20° 102° (ESE) 1,365 3.0 -16.9°
Drops below altitude 10° 22:02:08 10° 66° (ENE) 1,871 4.0 -17.1°
Sets 22:04:42 0° 50° (NE) 2,732 5.1 -17.3°
